This is the latest recevied weather packets stored in our database for station/object VE3TEJ. If no packets are shown the sender has not sent any weather packets the latest 10 day(s).
| Time | Temp. | Humidity | Pressure | Rain* | Wind** | Luminosity | Snow |
|---|---|---|---|---|---|---|---|
| 1777687336 | 2.78° C | 58% | 1014.2 hPa | 0 mm | - | - | - |
| 1777687036 | 2.78° C | 57% | 1014 hPa | 0 mm | - | - | - |
| 1777686736 | 2.78° C | 57% | 1014.1 hPa | 0 mm | - | - | - |
| 1777686436 | 2.78° C | 56% | 1013.8 hPa | 0 mm | - | - | - |
| 1777686136 | 2.78° C | 56% | 1013.8 hPa | 0 mm | - | - | - |
| 1777685836 | 3.33° C | 55% | 1013.8 hPa | 0 mm | - | - | - |
| 1777685536 | 2.78° C | 54% | 1013.8 hPa | 0 mm | - | - | - |
| 1777685238 | 3.33° C | 53% | 1013.7 hPa | 0 mm | - | - | - |
| 1777684938 | 3.33° C | 50% | 1013.7 hPa | 0 mm | - | - | - |
| 1777684637 | 3.33° C | 51% | 1013.6 hPa | 0 mm | - | - | - |
| 1777684337 | 3.89° C | 49% | 1013.6 hPa | 0 mm | - | - | - |
| 1777684037 | 3.89° C | 48% | 1013.6 hPa | 0 mm | - | - | - |
| 1777683737 | 3.89° C | 47% | 1013.1 hPa | 0 mm | - | - | - |
| 1777683437 | 3.89° C | 49% | 1013.1 hPa | 0 mm | - | - | - |
| 1777683137 | 3.89° C | 49% | 1013.3 hPa | 0 mm | - | - | - |
| 1777682837 | 4.44° C | 50% | 1013.3 hPa | 0 mm | - | - | - |
| 1777682537 | 4.44° C | 50% | 1013.2 hPa | 0 mm | - | - | - |
| 1777682238 | 4.44° C | 51% | 1012.9 hPa | 0 mm | - | - | - |
| 1777681938 | 4.44° C | 51% | 1012.8 hPa | 0 mm | - | - | - |
| 1777681638 | 4.44° C | 51% | 1013.1 hPa | 0 mm | - | - | - |
| 1777681338 | 5° C | 49% | 1013 hPa | 0 mm | - | - | - |
| 1777681038 | 5° C | 49% | 1012.9 hPa | 0 mm | - | - | - |
| 1777680737 | 5° C | 53% | 1012.8 hPa | 0 mm | - | - | - |
| 1777680438 | 5° C | 53% | 1012.8 hPa | 0 mm | - | - | - |
| 1777680138 | 5° C | 53% | 1012.8 hPa | 0 mm | - | - | - |
* Rain latest hour (hover to see other rain measurements)
** Current wind speed in m/s (hover to see current wind gust speed)